Theta_e
316 315 317 316 316 303 309 310 306 308 313 310 306 306 308 308 304 302 308 311 314 321 323 325 324 325 327 330 329 333 333 335 334 332 333 334 336 335 338 340 340 341 340 341 341 341 339 339 340 339 343 342 344 344 344 346 347 347 348 349 349 350 349
316 319 318 317 316 315 311 305 309 313 316 313 308 301 304 302 299 302 306 303 306 310 306 320 323 324 324 327 328 327 329 328 326 328 331 332 334 335 338 338 339 336 337 335 334 335 336 336 338 339 344 342 345 344 342 343 345 345 345 347 347 347 347
316 318 317 314 317 317 310 308 316 307 302 302 308 304 298 297 297 300 303 309 312 314 312 318 319 321 321 322 325 327 327 327 328 328 331 334 336 336 338 338 335 335 334 333 335 334 336 339 340 340 344 344 341 341 343 344 345 346 345 346 347 347 346
315 316 314 306 309 314 315 316 312 315 311 306 304 305 305 304 298 299 301 309 306 316 318 319 321 323 322 322 324 325 327 328 328 328 331 333 332 333 336 336 331 331 330 331 332 334 335 337 338 340 340 342 341 340 340 343 347 348 347 347 346 346 346
314 308 311 307 308 307 308 310 309 311 310 313 311 310 306 303 300 300 300 300 308 317 326 324 322 325 324 324 325 327 327 328 330 330 332 332 333 333 337 334 332 332 332 333 334 336 339 340 339 340 340 339 341 342 338 338 342 340 344 344 345 343 345
308 309 314 313 314 314 312 310 308 309 307 306 302 302 311 307 304 301 300 301 310 322 330 327 326 328 328 329 329 329 330 331 331 332 333 332 332 337 338 333 332 333 335 334 337 339 341 341 342 340 339 341 341 340 339 339 338 339 340 337 345 344 344
309 312 317 319 318 317 314 313 309 311 310 311 307 298 304 308 307 308 306 304 310 325 329 329 331 330 329 331 332 329 329 331 333 333 334 335 336 339 336 337 339 340 339 339 339 339 339 341 341 342 344 343 339 339 339 340 340 339 336 338 339 344 344
313 314 317 318 318 316 312 312 313 312 310 311 309 309 310 306 307 305 307 307 310 324 330 331 331 332 331 332 332 331 330 331 333 333 334 337 339 344 341 340 340 339 339 340 340 341 342 342 340 340 343 344 343 342 340 335 335 339 340 339 342 342 342
308 309 313 312 317 315 312 310 313 314 315 315 315 313 314 306 307 307 306 301 309 322 330 331 330 331 330 330 332 333 331 332 333 334 336 337 339 340 337 338 339 340 339 339 340 341 341 342 342 342 340 343 343 343 338 335 336 336 336 341 338 339 341
298 298 299 304 308 310 313 314 313 314 314 314 312 308 309 302 312 313 308 309 316 324 328 328 329 329 328 330 331 334 334 333 333 334 334 337 338 335 336 336 337 336 338 340 340 340 341 341 342 341 342 340 340 337 338 335 334 335 335 335 337 337 336
304 309 311 314 315 312 308 311 312 312 315 316 314 312 308 306 309 311 313 312 313 317 321 322 325 326 327 327 329 330 330 333 334 334 335 336 336 335 334 335 337 339 338 338 339 339 339 340 343 338 338 338 337 340 340 337 338 338 338 338 341 340 335
311 312 312 313 314 310 311 311 311 314 314 314 313 311 310 316 309 307 316 317 313 314 320 321 323 324 325 326 328 328 329 330 331 334 334 335 335 334 336 335 335 336 337 339 339 338 339 341 339 339 338 339 339 338 337 339 340 340 339 340 338 338 338
312 313 313 314 313 312 312 312 312 313 314 313 313 313 314 314 310 308 314 316 315 316 321 323 324 325 326 325 328 328 330 330 331 332 332 331 333 334 334 334 335 334 334 336 337 338 338 340 337 336 338 338 340 340 340 341 338 340 341 340 339 336 337
311 312 312 315 313 313 313 313 314 315 315 314 314 314 314 315 315 315 317 317 317 321 323 325 327 328 329 327 328 329 328 328 330 329 329 328 330 331 332 334 335 335 334 334 336 335 336 334 335 335 337 338 339 338 338 339 340 340 341 339 338 338 337
309 312 314 314 313 312 311 317 316 315 315 314 314 313 316 315 313 316 316 317 318 324 329 329 330 330 329 330 328 328 330 329 331 327 328 329 330 331 332 333 333 333 334 333 333 332 333 334 335 335 336 336 335 336 336 338 339 339 339 339 338 335 336
308 311 311 312 315 314 313 315 314 313 313 311 312 311 317 314 312 314 315 315 316 325 328 330 329 327 327 326 327 329 329 329 325 327 329 330 330 328 327 330 331 331 332 331 333 334 334 334 334 335 336 334 335 334 337 337 338 339 338 337 336 336 335
308 311 312 310 311 310 308 312 314 315 314 315 316 317 318 317 317 314 312 313 322 326 329 326 325 325 325 325 325 325 325 326 326 325 324 325 325 325 326 328 330 330 330 332 334 333 334 336 336 334 335 335 333 335 335 336 337 336 335 335 335 333 333
306 310 311 312 308 302 308 317 320 319 313 314 312 314 317 318 319 316 318 320 325 326 326 323 324 323 323 325 327 328 327 325 325 324 325 325 326 327 328 328 328 330 332 334 334 334 334 334 334 334 335 333 334 335 336 337 334 334 333 332 331 331 330
305 309 310 306 301 308 315 319 321 318 319 319 318 318 321 321 322 321 321 322 323 325 325 325 325 326 326 328 326 326 325 326 325 324 324 325 325 326 328 329 330 331 331 332 332 333 333 334 335 334 333 333 333 333 333 332 332 331 330 330 329 327 328
310 307 306 298 307 315 319 317 320 320 319 318 319 319 321 324 324 323 321 323 324 325 324 328 326 326 326 325 325 325 325 325 324 323 322 323 324 324 327 329 329 330 329 330 331 332 334 333 332 332 331 332 332 331 332 330 330 328 328 327 327 326 326
303 305 305 310 315 315 315 314 317 316 315 315 314 311 318 323 324 324 322 322 323 323 324 325 326 327 325 323 323 325 325 324 324 323 323 323 323 324 325 325 327 330 330 330 331 332 332 331 330 330 329 331 330 329 327 327 328 326 326 325 324 325 325
310 305 303 307 307 304 309 317 321 323 320 320 321 319 315 325 326 325 324 322 323 325 324 324 325 326 321 315 318 322 323 323 322 324 323 324 323 324 325 327 325 327 329 329 330 330 329 328 328 328 327 328 328 325 325 325 324 323 323 323 323 323 324
308 306 302 304 304 309 317 318 321 322 323 322 323 316 311 323 327 328 327 324 324 324 324 325 326 322 314 313 318 321 323 322 322 321 322 323 323 324 325 325 323 323 326 328 327 328 327 325 326 326 325 325 323 321 322 322 321 320 321 322 323 323 324
308 305 303 301 311 311 317 320 321 322 323 322 318 305 305 322 326 326 326 323 324 324 324 323 320 316 313 313 318 321 321 321 322 321 321 321 322 323 325 326 325 325 328 326 325 323 323 324 325 324 324 323 322 321 322 322 320 320 322 323 324 325 325
306 307 306 310 312 318 319 320 321 324 323 320 308 303 313 325 327 326 325 324 323 323 321 321 317 318 319 320 320 321 322 321 322 323 324 323 323 324 324 325 328 323 325 325 323 322 322 324 324 324 323 323 322 322 322 321 321 320 323 325 324 324 325
306 308 307 308 312 317 319 322 322 324 318 308 309 319 327 326 323 324 324 322 322 321 320 320 319 320 320 321 321 321 321 321 322 323 323 324 324 325 326 328 325 322 323 324 323 320 321 322 321 324 323 322 321 322 321 319 321 323 325 325 325 324 324
311 312 307 306 299 317 324 320 321 325 316 316 323 325 325 325 323 322 321 321 321 322 320 320 320 319 320 320 320 319 320 321 321 322 323 323 322 323 324 324 322 321 319 319 319 318 320 321 321 323 321 321 320 321 318 321 322 324 324 323 324 324 323
309 309 307 305 315 322 325 324 316 321 323 326 326 324 321 324 323 322 321 321 321 321 319 319 318 317 318 319 320 320 321 320 322 323 324 325 323 323 323 321 319 320 317 319 319 319 320 321 322 323 321 319 320 318 318 322 323 324 323 322 324 322 322
316 313 315 320 323 323 325 325 323 325 326 327 326 324 322 321 320 323 320 320 320 320 319 318 318 317 317 318 319 319 320 319 322 322 323 322 322 321 320 317 319 319 316 319 320 319 320 319 322 324 322 319 319 318 320 322 324 321 320 320 320 320 321
321 322 322 322 322 322 322 324 324 323 323 324 324 322 320 321 322 322 320 319 319 320 319 317 318 318 317 318 317 319 320 321 322 324 322 322 321 319 318 317 317 317 317 319 319 318 320 321 321 323 322 320 319 318 322 323 321 320 320 320 319 320 321
317 307 321 319 319 321 321 321 323 324 324 323 324 322 322 321 322 321 321 321 320 320 320 319 318 318 318 318 317 319 321 321 321 321 320 320 319 317 317 317 318 317 317 315 317 317 317 320 320 319 320 321 321 321 323 318 318 321 321 319 319 319 319
315 314 319 320 321 322 322 322 320 320 321 322 322 322 322 323 322 321 319 321 320 320 319 319 319 319 319 319 317 318 320 321 320 320 319 318 318 318 319 319 319 316 316 315 316 317 317 319 320 319 320 321 322 320 318 317 319 320 320 318 315 316 315
318 320 321 320 321 321 321 322 323 323 322 322 322 323 322 322 322 322 322 320 320 320 321 323 320 319 318 320 320 319 320 320 319 318 317 318 318 318 319 318 318 317 317 316 317 317 317 319 320 320 320 322 323 320 320 320 322 320 319 318 318 315 316
314 313 316 319 313 312 317 320 322 323 324 323 322 322 320 320 319 319 319 320 321 320 319 318 318 318 318 318 320 318 320 319 319 318 317 317 316 316 315 317 316 317 318 317 316 317 317 321 320 320 321 323 322 317 321 321 322 321 319 316 316 317 316
314 319 321 324 322 320 320 321 323 324 324 323 320 319 319 319 320 320 319 317 319 319 320 319 318 318 318 318 319 319 319 318 319 318 318 315 315 314 315 315 315 316 317 317 317 317 318 321 321 321 321 318 321 319 323 322 320 321 319 318 315 313 315
321 323 322 324 322 319 320 322 323 322 323 322 320 321 321 320 320 320 320 319 318 318 318 319 319 318 319 319 319 319 318 319 318 316 316 317 315 315 315 314 317 316 316 316 315 317 317 319 320 320 317 317 321 320 324 321 323 321 320 318 315 316 315
320 325 325 324 323 322 323 323 324 323 324 323 320 320 320 320 320 320 320 319 320 318 318 317 318 320 319 319 319 318 316 317 316 315 317 319 315 315 314 314 315 316 318 317 316 318 316 317 318 318 317 317 316 317 321 319 319 319 319 318 315 316 315
Wind_Speed
4 7 8 12 8 10 2 6 7 9 9 11 10 8 10 10 7 6 6 4 6 11 13 16 17 17 13 14 13 12 8 6 6 7 7 8 10 11 9 6 2 6 8 8 8 8 9 9 8 8 7 8 8 7 8 8 7 7 7 7 7 7 6
10 10 9 8 6 7 7 10 8 18 9 8 7 8 6 8 8 6 8 10 9 6 5 9 11 17 16 15 17 18 19 18 16 14 15 14 13 12 12 8 9 6 4 7 8 9 10 10 9 8 7 7 7 7 8 8 7 7 7 7 7 7 7
13 13 4 8 11 11 12 13 14 10 9 11 5 6 9 9 9 8 7 12 12 11 4 5 5 7 11 10 10 12 11 8 6 8 9 8 6 3 6 8 5 8 6 8 8 10 10 8 7 7 5 6 7 7 6 6 6 6 6 6 6 6 7
8 2 3 10 9 13 11 9 10 4 6 8 9 6 9 7 10 9 7 12 4 3 2 3 8 4 9 9 9 11 12 12 11 7 5 7 4 6 8 11 6 7 8 9 8 8 8 8 6 5 5 4 5 6 7 5 4 4 5 6 6 6 7
5 5 5 9 8 6 8 4 6 6 6 4 8 7 9 9 8 8 9 4 1 4 7 6 9 8 7 9 8 6 7 10 12 16 13 12 10 11 10 8 9 8 8 9 9 9 7 6 6 6 7 8 7 7 8 7 6 7 6 6 6 6 6
5 8 5 14 10 9 5 3 7 6 7 6 8 9 6 8 9 7 7 6 4 4 4 5 5 8 8 9 10 7 7 5 3 5 7 4 2 5 8 3 10 9 9 10 7 6 6 5 6 7 7 5 6 6 5 4 5 6 6 7 5 6 6
4 1 13 11 8 7 6 8 10 9 8 4 6 4 8 9 7 12 7 6 1 4 6 5 9 10 8 6 8 9 8 7 5 5 4 3 3 6 4 8 8 9 8 9 8 7 7 7 7 6 5 6 7 6 5 4 4 6 8 7 8 6 6
2 4 10 2 6 9 10 10 11 8 5 10 8 7 9 9 9 8 7 6 3 3 4 8 10 10 8 6 8 11 9 7 5 6 5 4 4 3 5 7 9 8 9 8 6 8 8 7 5 5 6 7 7 8 9 8 9 7 6 7 7 7 7
5 5 5 8 5 5 5 5 4 6 6 6 9 10 7 7 11 13 7 3 3 2 6 5 8 9 11 11 8 8 9 7 6 6 4 4 5 5 8 8 8 8 8 5 4 4 4 5 5 5 5 3 1 4 6 7 7 9 9 6 7 7 7
7 5 6 3 5 4 8 9 8 9 11 11 10 9 8 5 10 14 6 5 4 7 6 6 6 9 11 10 10 8 7 7 7 6 6 6 7 7 9 8 8 8 7 5 5 5 4 6 5 2 4 4 3 6 7 7 8 8 8 9 8 9 9
5 2 5 2 4 6 8 8 8 9 7 8 8 9 8 4 5 9 4 6 8 5 6 7 4 6 8 8 8 8 8 8 7 6 6 6 7 8 7 7 5 6 5 5 2 0 1 3 4 3 4 4 4 3 5 7 6 7 7 7 7 7 9
9 10 6 5 6 8 9 9 9 9 9 8 8 5 7 10 9 6 4 6 5 4 7 5 6 6 6 6 6 6 6 7 7 7 7 6 6 7 5 5 5 4 4 3 2 0 1 2 4 4 3 3 4 7 7 6 6 6 6 7 7 7 7
8 7 7 6 8 9 9 9 10 8 9 11 11 9 11 13 7 5 6 4 5 3 7 7 8 6 6 4 5 5 7 7 7 6 5 5 6 6 5 3 3 4 2 2 4 2 1 1 1 2 5 6 5 4 4 4 6 6 6 6 7 8 8
5 9 6 7 6 9 7 7 6 4 6 10 15 11 8 10 11 4 7 6 7 6 7 7 6 6 8 7 5 5 6 5 6 5 3 5 6 4 4 2 3 4 5 4 5 4 3 3 6 7 5 4 5 5 5 5 5 6 6 6 7 7 7
9 11 7 6 9 10 10 10 13 11 8 8 10 12 12 12 6 3 7 7 7 6 8 7 7 5 5 4 5 5 5 4 11 10 7 7 7 6 5 3 3 4 5 4 5 6 5 6 4 4 4 4 5 5 5 5 6 6 6 6 7 8 8
8 7 8 10 8 9 4 11 7 7 10 9 11 11 10 7 8 9 10 6 4 5 7 5 7 5 2 4 2 3 4 4 10 8 9 7 7 7 8 5 4 5 7 6 5 6 5 5 4 4 5 5 5 6 6 6 6 6 6 7 7 7 8
7 7 11 10 11 10 4 9 6 3 5 3 7 7 11 9 7 8 7 6 5 4 5 6 4 4 7 7 4 6 6 6 7 5 7 6 7 7 6 7 6 5 6 5 4 4 4 4 5 6 6 5 6 6 6 6 6 6 7 7 7 8 8
7 10 12 9 7 6 2 4 3 4 4 6 7 9 10 11 10 8 9 5 4 2 7 5 4 6 5 5 5 5 4 4 8 5 6 9 8 8 7 6 6 5 3 4 5 5 6 6 7 6 6 6 6 6 6 6 7 7 7 7 7 8 8
9 8 11 8 9 4 3 8 6 8 6 5 9 13 15 10 9 12 11 8 5 6 8 6 7 6 6 6 7 8 7 6 8 8 9 8 8 7 7 6 5 5 6 5 5 6 6 6 7 6 6 6 6 5 6 6 7 7 7 8 8 8 8
6 8 6 10 4 6 7 5 3 2 5 4 11 14 12 9 10 10 9 8 4 5 5 6 6 5 6 6 5 5 6 7 8 8 8 7 6 8 7 8 5 5 6 5 5 6 6 7 7 6 7 7 7 6 7 7 7 7 7 7 8 8 8
9 7 5 4 9 8 5 1 3 3 4 1 3 3 7 6 5 9 7 3 6 5 5 7 8 6 4 3 4 6 8 9 9 10 9 9 10 9 9 9 7 6 6 6 6 6 7 7 7 7 7 7 7 7 7 7 7 7 7 8 9 9 9
6 9 3 6 6 3 1 2 1 4 6 5 11 8 8 6 9 8 7 4 5 2 4 8 7 3 2 1 3 5 7 6 8 6 8 9 9 9 9 7 9 7 6 6 7 8 7 8 8 7 8 7 7 7 7 7 7 8 8 8 8 9 9
8 8 9 3 3 4 2 1 2 4 1 6 5 5 5 2 3 11 12 6 8 5 1 7 8 5 2 2 3 2 4 7 6 8 10 11 9 10 9 9 9 8 8 7 6 9 7 7 7 8 8 8 7 7 7 8 8 9 9 9 8 9 9
7 8 9 2 5 3 4 4 3 5 6 6 4 9 1 1 6 6 4 6 5 5 3 2 7 6 5 2 3 3 8 10 11 10 10 9 9 9 10 10 10 7 9 8 9 7 8 7 7 8 8 7 8 8 8 7 9 9 9 8 8 8 8
8 11 6 7 7 6 7 6 4 5 4 6 7 3 3 2 3 5 6 7 7 7 8 6 5 6 6 5 8 12 7 6 9 9 9 9 9 9 9 10 9 9 8 8 7 10 9 10 9 8 8 7 8 8 8 9 9 9 8 8 8 8 8
8 7 9 7 5 5 8 4 4 8 8 3 3 6 5 5 8 8 7 7 6 5 6 6 5 4 5 5 7 5 7 6 8 8 9 9 9 9 9 9 9 8 8 9 10 10 9 9 9 8 7 8 8 8 8 10 10 8 7 8 7 8 8
4 9 4 4 2 4 6 6 3 9 3 6 7 8 8 9 9 9 9 7 7 6 5 5 6 3 1 4 6 7 9 7 7 7 8 8 8 8 8 9 10 9 8 9 9 9 8 10 8 8 8 8 8 8 9 9 8 7 7 7 7 7 8
3 5 4 2 3 5 10 9 8 9 10 7 8 7 8 7 5 4 7 6 6 6 7 4 3 7 10 4 4 4 5 7 9 8 8 7 7 7 8 9 10 9 8 8 8 8 8 8 7 7 8 9 9 9 10 8 7 7 8 8 7 8 8
3 4 6 6 6 7 8 9 10 10 10 9 9 9 8 7 6 6 6 5 6 6 6 7 7 5 7 8 9 5 6 7 11 9 7 7 7 8 9 10 10 9 9 8 8 8 8 9 7 7 7 9 9 10 9 7 6 8 8 9 8 7 7
13 12 9 9 10 11 12 12 11 13 13 12 11 11 10 10 9 8 6 6 7 7 7 7 7 6 6 5 7 7 7 7 7 6 3 5 6 6 6 7 9 10 9 9 9 9 8 8 8 7 7 8 9 9 7 7 6 8 9 9 10 8 6
6 6 7 11 12 12 12 12 12 12 11 11 10 10 10 8 7 6 6 4 5 7 7 8 6 7 8 9 8 8 9 7 6 3 6 8 7 4 3 7 8 9 9 9 8 9 8 8 8 8 8 7 7 6 7 10 10 9 7 7 9 9 7
6 10 9 10 10 9 10 9 10 10 10 11 10 8 8 8 7 7 8 8 7 7 8 6 4 5 7 7 7 6 7 6 3 6 7 6 4 3 5 8 10 11 8 8 9 9 8 8 7 7 8 6 6 7 10 11 9 8 7 8 10 9 11
9 12 11 11 13 12 11 12 11 9 8 8 9 9 9 8 7 4 6 7 8 7 5 2 3 8 6 7 7 7 6 3 5 6 3 3 5 7 3 8 10 7 8 8 8 8 7 6 7 8 8 6 5 7 8 8 8 7 8 9 8 9 8
8 6 9 8 5 7 7 8 9 9 8 8 7 5 7 7 7 7 7 6 6 5 6 9 5 6 4 7 6 6 5 2 4 6 5 5 4 3 4 8 8 7 7 6 8 7 7 6 6 7 8 6 6 7 7 7 7 6 8 8 8 7 8
6 9 8 4 8 9 8 7 6 6 6 8 8 6 7 8 8 5 5 6 4 5 3 3 4 6 4 6 6 4 2 3 6 2 3 3 7 7 8 6 8 7 7 6 7 6 7 6 6 7 7 8 6 8 6 7 7 7 7 8 8 8 7
12 10 8 7 7 9 8 7 7 8 7 3 3 8 8 8 7 7 6 7 6 7 6 5 9 11 10 8 5 4 3 4 6 6 4 5 7 6 4 6 8 6 7 5 7 7 6 7 7 7 8 8 6 7 5 7 6 6 7 6 7 7 7
11 11 11 11 11 9 8 8 8 7 7 10 10 9 8 8 7 6 6 5 5 5 7 7 7 8 6 4 5 4 5 7 5 4 6 9 6 5 6 6 6 6 5 8 4 6 7 8 8 7 8 7 9 9 6 7 8 8 7 6 7 6 8
Wind_Direction
198 196 228 215 208 266 258 277 264 10 17 287 314 331 287 325 300 299 1 111 88 91 51 25 27 36 40 70 88 83 66 90 72 69 40 20 36 18 17 328 81 73 71 91 91 90 86 79 75 77 77 77 72 66 59 56 53 48 42 40 33 27 18
186 241 253 295 280 268 271 261 287 359 318 309 282 298 339 290 313 327 335 356 49 53 60 358 33 63 62 46 44 36 25 21 4 8 22 16 8 9 336 306 343 49 111 105 100 95 91 88 85 77 73 72 64 64 63 58 48 44 43 30 30 21 8
206 193 245 263 258 278 291 296 334 320 359 321 332 327 285 328 316 319 314 64 66 48 27 29 44 66 83 86 84 84 86 79 38 22 27 50 38 359 306 301 248 230 111 84 85 90 93 100 101 105 108 95 83 74 75 71 63 58 47 36 25 17 9
58 211 183 256 237 197 230 280 287 293 310 292 318 5 332 279 280 298 331 63 38 30 34 20 96 102 133 137 136 137 142 145 147 143 153 137 165 223 228 243 165 108 107 107 109 100 90 83 85 75 65 71 86 99 87 58 49 64 53 50 26 15 358
180 242 186 241 237 198 180 206 258 236 222 312 305 290 288 310 321 318 315 51 10 6 333 357 100 129 162 150 142 134 145 156 163 172 175 173 176 189 218 213 132 121 102 100 82 75 73 69 58 51 43 26 24 17 23 32 39 8 37 34 40 10 357
171 286 168 249 345 28 324 286 307 335 302 300 322 299 311 327 323 316 334 77 290 356 319 343 80 112 131 147 141 145 116 94 358 49 42 46 340 308 280 159 96 98 93 91 85 70 67 55 42 45 34 33 28 7 23 14 28 15 19 12 39 8 358
232 31 341 26 1 345 326 329 308 328 311 305 272 327 333 315 311 318 344 114 26 310 6 50 52 77 93 102 107 96 102 108 103 72 80 64 333 311 355 55 62 69 70 72 61 59 58 47 44 28 29 9 5 355 1 352 35 35 18 10 22 13 346
156 189 245 247 260 292 291 252 249 257 318 5 320 324 332 326 323 319 30 79 82 25 6 69 83 92 96 93 103 112 111 122 97 96 89 49 15 353 74 60 67 67 61 52 41 35 23 26 30 25 22 20 351 1 343 13 359 18 27 11 22 355 343
171 189 199 249 357 345 279 283 321 357 308 312 334 325 323 317 355 355 67 50 137 74 49 84 106 113 108 109 108 108 110 112 114 107 108 101 79 66 81 75 71 75 70 54 28 42 12 4 12 20 43 346 319 347 343 22 5 7 9 354 11 348 333
264 265 272 326 283 252 302 320 345 334 337 333 335 328 349 350 11 44 38 82 101 107 110 97 85 90 93 92 102 108 112 115 119 116 108 92 76 71 73 69 67 65 70 67 40 26 12 1 353 360 20 25 354 27 359 19 3 3 358 349 358 340 337
303 38 355 232 261 230 251 275 312 309 334 338 326 333 332 39 311 82 40 81 117 147 141 83 60 76 91 107 106 111 109 107 106 104 99 90 74 73 74 78 64 74 76 82 78 271 71 328 324 21 43 27 12 24 0 9 358 7 352 351 345 333 334
277 292 285 311 299 291 281 303 318 345 325 352 330 342 342 4 316 87 35 26 84 64 55 76 65 68 70 69 88 89 114 127 118 113 113 100 90 88 85 83 78 62 77 95 158 112 35 345 1 10 36 352 15 9 15 2 353 359 350 342 334 329 331
261 243 282 302 321 311 320 315 300 314 348 330 341 355 28 38 47 80 103 111 103 142 112 123 123 127 94 134 168 143 123 121 122 139 139 98 95 96 93 88 88 75 48 130 130 128 172 39 9 40 26 7 18 25 353 8 342 343 342 332 332 329 331
272 268 253 285 285 289 300 288 303 321 347 13 7 2 359 10 98 81 120 95 98 80 94 91 75 107 142 154 138 154 141 147 121 61 73 101 112 122 133 152 116 114 115 116 122 144 103 49 36 28 27 9 13 8 358 348 344 340 339 339 331 335 338
286 297 299 253 252 252 265 27 31 351 16 355 359 341 26 355 53 57 87 67 78 89 95 114 132 148 133 164 134 118 94 64 104 152 143 131 137 151 121 97 80 89 106 84 69 65 44 41 52 40 10 358 7 355 348 343 345 344 342 341 340 342 345
275 268 278 277 278 282 27 45 38 13 6 346 355 333 44 14 352 356 24 63 64 104 100 118 98 111 138 113 110 157 144 144 119 122 137 137 123 90 91 99 82 64 52 47 53 41 37 56 41 8 26 356 4 357 346 349 344 349 346 347 347 350 352
268 300 289 289 283 285 28 21 53 43 44 330 292 15 33 20 37 34 42 54 35 84 140 82 63 86 69 56 21 35 60 90 87 76 64 70 71 84 93 85 80 52 49 59 61 57 58 24 33 11 18 9 1 353 349 345 347 355 354 355 355 357 357
304 293 289 298 294 272 113 213 35 17 324 344 355 54 52 52 45 61 69 88 109 82 57 66 98 94 91 98 84 86 93 50 74 62 58 78 71 70 65 51 47 64 67 59 50 43 44 30 28 21 20 10 353 354 352 349 7 0 358 1 359 359 353
280 287 282 274 261 67 100 54 6 324 342 67 75 62 62 52 62 86 87 74 44 55 76 91 96 99 81 50 57 63 47 44 97 98 76 62 69 78 78 68 56 47 55 49 48 40 31 30 28 22 19 4 357 355 4 3 12 6 358 6 1 356 351
277 276 268 274 71 154 116 150 181 340 348 24 78 69 64 66 68 86 89 86 68 99 105 107 115 105 109 101 78 44 40 32 31 45 59 68 61 67 72 105 78 57 55 55 46 47 37 32 33 23 14 359 1 3 9 9 10 7 358 5 2 354 356
264 268 294 50 125 128 147 155 48 345 87 269 137 110 81 92 95 90 101 126 123 68 111 111 69 49 45 79 41 43 44 39 38 22 28 20 32 37 47 32 75 83 42 47 60 56 44 39 32 24 4 1 2 11 5 5 12 360 3 5 1 354 354
275 282 267 133 168 157 49 268 50 324 9 356 97 106 97 77 121 112 75 79 33 126 173 120 113 126 228 337 70 23 53 46 25 29 38 26 27 40 41 39 13 39 61 34 50 62 49 48 37 17 10 359 11 10 1 6 11 1 1 2 359 352 344
286 279 288 321 127 58 47 326 254 275 289 314 139 145 124 81 10 133 148 164 161 225 169 98 149 159 124 42 78 342 358 21 61 13 17 27 15 29 43 31 13 5 40 27 21 84 62 56 39 25 9 7 15 10 359 10 9 3 358 351 356 353 342
259 285 275 108 53 126 195 225 19 48 1 295 290 274 100 126 350 0 102 124 101 97 131 128 52 15 73 94 86 66 39 356 21 40 40 20 13 26 36 33 7 6 51 23 9 29 80 64 54 32 20 9 14 6 359 4 8 0 351 343 349 354 336
229 218 94 121 115 60 13 24 356 14 315 272 273 330 114 152 128 92 79 75 63 44 46 54 84 63 41 54 10 8 44 36 31 14 32 17 19 31 32 33 6 3 46 34 18 0 23 25 50 34 24 5 12 0 357 2 9 357 338 348 354 349 338
336 38 74 67 82 45 315 15 25 0 283 267 62 96 139 148 93 76 72 82 79 83 53 60 52 22 64 14 41 16 56 19 44 32 30 21 21 31 27 33 18 360 23 39 21 14 14 35 29 24 12 4 10 355 5 4 3 344 340 359 346 341 343
334 61 54 69 68 37 339 321 331 26 5 92 116 135 120 93 83 75 58 39 36 9 70 43 63 90 79 49 51 2 33 35 37 27 32 25 20 20 21 28 18 2 25 35 26 13 22 29 22 20 5 4 5 2 5 3 350 338 1 344 345 345 339
2 26 55 70 46 42 31 39 67 64 86 116 112 112 100 92 107 127 99 44 31 35 16 343 94 22 30 75 93 45 35 21 59 38 32 24 13 25 36 29 14 9 29 38 33 20 27 27 21 19 2 7 2 6 357 9 331 360 360 333 0 346 333
37 71 104 95 93 77 78 87 94 94 86 82 84 82 82 95 78 63 88 94 94 50 9 7 37 341 54 353 50 47 35 31 60 39 45 30 20 30 41 27 16 20 20 31 34 26 30 19 16 15 10 10 4 5 356 344 330 21 344 350 351 332 327
87 81 86 100 84 77 80 79 80 78 72 66 72 77 76 59 59 48 50 51 28 56 35 11 34 37 25 8 32 38 49 38 55 63 43 53 51 28 43 48 45 29 13 20 29 22 26 17 10 22 16 3 3 7 333 317 6 23 357 356 332 333 338
127 92 103 91 85 82 80 84 83 83 81 80 77 78 71 70 63 66 67 83 80 51 50 25 26 31 30 22 10 26 58 43 46 11 25 49 44 11 308 82 59 52 16 8 16 23 15 17 15 11 9 351 10 353 340 340 4 14 345 350 339 331 356
91 116 106 96 95 94 96 93 88 86 87 86 88 87 82 70 54 47 27 8 65 32 46 27 18 37 41 31 357 35 57 50 20 32 33 31 325 334 10 53 51 52 11 17 360 22 5 20 2 11 349 359 348 360 356 353 358 342 339 1 347 345 349
104 105 106 100 91 85 79 75 70 75 81 83 74 72 76 67 67 73 100 46 27 56 64 105 36 46 36 52 29 28 57 29 39 51 36 11 332 316 101 66 64 25 39 7 5 17 1 7 1 5 350 343 16 2 12 354 344 343 349 358 337 347 342
151 145 133 149 151 126 110 103 101 97 90 92 86 80 93 108 93 20 21 67 73 54 52 343 31 53 8 51 48 13 58 47 33 29 4 6 289 25 12 66 50 46 38 18 5 14 351 7 12 354 335 333 39 356 14 346 331 353 354 345 330 360 344
137 128 119 43 78 98 91 108 117 117 115 97 87 62 35 37 51 54 46 39 18 47 83 65 353 98 53 40 36 27 12 340 82 37 321 25 344 36 355 24 62 25 42 32 14 7 7 340 11 354 330 343 34 1 11 348 324 27 352 355 347 351 349
104 117 132 132 112 111 114 97 79 68 36 31 54 83 65 58 36 37 25 58 17 359 6 29 31 42 27 34 21 34 332 337 75 23 339 316 42 340 348 349 59 42 49 35 30 352 7 352 5 347 335 339 43 349 12 334 16 25 10 346 347 336 23
86 73 81 88 101 107 110 111 92 71 63 59 66 62 52 45 39 29 41 344 67 21 23 3 16 37 29 33 344 47 326 94 49 39 336 27 6 326 351 9 36 42 47 53 358 10 352 360 349 341 329 329 32 334 12 355 34 18 10 350 347 353 41